Location: Belmont
(13.0833°N, 59.6000°W)
Time: 07:10:20
(UTC+00:00)

Cosmos 1975 - Pass Details

Date: 17 September 2019
Orbit: 543 x 561 km, 82.5° (Epoch: 17 October)

Event Time Altitude Azimuth Distance (km) Brightness Sun altitude
Rises 22:11:57 0° 186° (S) 2,695 6.4 -4.2°
Reaches altitude 10° 22:14:06 10° 186° (S) 1,803 5.5 -4.7°
Maximum altitude 22:18:04 82° 273° (W) 551 2.9 -5.7°
Drops below altitude 10° 22:22:02 10° 2° (N) 1,803 5.5 -6.6°
Sets 22:24:11 0° 3° (N) 2,696 6.4 -7.1°
